KD0RII Weather Reports


time (UTC)temp
F
wind
direction
speed
knots
gust
knots
rain 1hr
in
rain 24hr
in
rain mn
in
humidity
%
barometer
mb
20260507191615 69 240 1.7 1.7 0.00 0.00 0.00 49 1014.8
20260507191112 69 194 5.2 7.0 0.00 0.00 0.00 45 1015.1
20260507190610 69 195 0.9 1.7 0.00 0.00 0.00 47 1015.2
20260507190109 70 182 0.9 2.6 0.00 0.00 0.00 53 1015.3
20260507185607 69 121 0.0 0.0 0.00 0.00 0.00 49 1015.1
20260507185102 70 217 1.7 2.6 0.00 0.00 0.00 49 1015.4
20260507184601 69 144 0.9 0.9 0.00 0.00 0.00 52 1015.4
20260507184058 68 206 3.5 6.1 0.00 0.00 0.00 52 1015.4
20260507183554 69 2 1.7 2.6 0.00 0.00 0.00 48 1015.5
20260507183051 69 209 3.5 5.2 0.00 0.00 0.00 48 1015.9
20260507182548 68 89 0.9 0.9 0.00 0.00 0.00 55 1015.8
20260507182044 67 130 0.9 1.7 0.00 0.00 0.00 57 1016.1
20260507181541 67 180 2.6 3.5 0.00 0.00 0.00 51 1016.2
20260507181037 67 89 0.9 1.7 0.00 0.00 0.00 51 1016.4
20260507180533 67 127 2.6 3.5 0.00 0.00 0.00 50 1016.4
20260507180030 68 208 4.3 6.1 0.00 0.00 0.00 49 1016.4
20260507175526 67 232 0.9 1.7 0.00 0.00 0.00 58 1016.5
20260507175025 65 210 2.6 3.5 0.00 0.00 0.00 53 1016.5
20260507174521 66 83 1.7 1.7 0.00 0.00 0.00 53 1016.9
20260507174019 66 171 1.7 1.7 0.00 0.00 0.00 54 1017.0
20260507173515 65 217 1.7 2.6 0.00 0.00 0.00 53 1017.0
20260507173013 64 141 1.7 2.6 0.00 0.00 0.00 55 1017.2
20260507172509 66 140 4.3 6.1 0.00 0.00 0.00 52 1017.0
20260507172006 67 184 2.6 2.6 0.00 0.00 0.00 51 1017.2
20260507171501 67 123 1.7 1.7 0.00 0.00 0.00 55 1017.1
20260507170959 65 134 1.7 1.7 0.00 0.00 0.00 54 1017.4
20260507170455 65 161 2.6 3.5 0.00 0.00 0.00 53 1017.4
20260507165952 66 154 1.7 3.5 0.00 0.00 0.00 52 1017.5
20260507165448 66 111 3.5 6.1 0.00 0.00 0.00 52 1017.6
20260507164944 66 172 3.5 3.5 0.00 0.00 0.00 54 1017.6
20260507164441 65 184 3.5 5.2 0.00 0.00 0.00 53 1017.5
20260507163937 65 135 3.5 5.2 0.00 0.00 0.00 53 1017.6
20260507163435 64 189 1.7 2.6 0.00 0.00 0.00 57 1017.8
20260507162932 64 339 2.6 2.6 0.00 0.00 0.00 54 1017.8
20260507162427 64 193 1.7 3.5 0.00 0.00 0.00 54 1018.0
20260507161925 64 170 3.5 5.2 0.00 0.00 0.00 55 1017.9
20260507161420 64 122 3.5 6.1 0.00 0.00 0.00 54 1018.0
20260507160918 64 129 3.5 5.2 0.00 0.00 0.00 54 1018.1
20260507160414 64 158 1.7 2.6 0.00 0.00 0.00 55 1017.9
20260507155910 64 124 0.0 0.9 0.00 0.00 0.00 57 1018.2
20260507155405 64 39 2.6 3.5 0.00 0.00 0.00 55 1017.8
20260507154903 64 265 3.5 3.5 0.00 0.00 0.00 56 1017.9
20260507154400 63 84 0.9 2.6 0.00 0.00 0.00 59 1018.0
20260507153950 63 154 1.7 1.7 0.00 0.00 0.00 56 1018.1
20260507153857 63 154 1.7 1.7 0.00 0.00 0.00 56 1018.1
20260507153618 63 195 1.7 2.6 0.00 0.00 0.00 58 1018.1
20260507153353 63 195 1.7 2.6 0.00 0.00 0.00 58 1018.1
20260507153215 63 70 3.5 5.2 0.00 0.00 0.00 57 1018.1
20260507152849 63 70 3.5 5.2 0.00 0.00 0.00 57 1018.1
20260507152553 63 127 1.7 2.6 0.00 0.00 0.00 59 1018.2
20260507152346 63 91 0.9 2.6 0.00 0.00 0.00 58 1018.2
20260507151842 63 127 1.7 2.6 0.00 0.00 0.00 59 1018.2
20260507151338 62 129 2.6 2.6 0.00 0.00 0.00 60 1018.3
20260507150836 62 116 0.9 0.9 0.00 0.00 0.00 61 1018.5
20260507150332 62 148 2.6 3.5 0.00 0.00 0.00 60 1018.4
20260507145828 62 106 0.9 0.9 0.00 0.00 0.00 62 1018.5
20260507145325 61 121 1.7 1.7 0.00 0.00 0.00 60 1018.4
20260507144822 61 142 0.9 0.9 0.00 0.00 0.00 64 1018.5
20260507144319 61 162 2.6 3.5 0.00 0.00 0.00 60 1018.4
20260507143815 61 78 0.9 1.7 0.00 0.00 0.00 62 1018.4
20260507143313 60 115 1.7 1.7 0.00 0.00 0.00 66 1018.6
20260507142809 60 249 1.7 3.5 0.00 0.00 0.00 65 1018.6
20260507142307 60 138 1.7 2.6 0.00 0.00 0.00 64 1018.6
20260507141802 60 155 1.7 1.7 0.00 0.00 0.00 65 1018.5
20260507141259 59 104 0.0 0.9 0.00 0.00 0.00 67 1018.7
20260507140755 57 98 0.9 1.7 0.00 0.00 0.00 72 1018.6
20260507140253 56 102 0.9 1.7 0.00 0.00 0.00 74 1018.7
20260507135750 54 132 1.7 2.6 0.00 0.00 0.00 80 1018.7
20260507135247 52 127 0.0 0.9 0.00 0.00 0.00 89 1018.8
20260507134743 51 218 0.9 1.7 0.00 0.00 0.00 92 1018.8
20260507134240 50 77 1.7 1.7 0.00 0.00 0.00 93 1018.7
20260507133736 50 119 0.0 0.9 0.00 0.00 0.00 94 1018.7
20260507133233 50 98 0.0 0.0 0.00 0.00 0.00 95 1018.7
20260507132730 49 103 0.9 0.9 0.00 0.00 0.00 95 1019.0
20260507132227 48 130 0.0 0.9 0.00 0.00 0.00 95 1019.0
20260507131724 48 107 0.0 0.0 0.00 0.00 0.00 95 1018.8
20260507131221 47 96 0.0 0.0 0.00 0.00 0.00 95 1018.7
20260507130717 46 97 0.0 0.0 0.00 0.00 0.00 95 1018.9
20260507130216 46 99 0.0 0.9 0.00 0.00 0.00 95 1019.0
20260507125714 45 95 0.0 0.0 0.00 0.00 0.00 95 1018.8
20260507125211 45 98 0.0 0.0 0.00 0.00 0.00 95 1018.9
20260507124707 44 103 0.0 0.0 0.00 0.00 0.00 95 1018.9
20260507124205 43 101 0.0 0.0 0.00 0.00 0.00 95 1018.9
20260507123703 42 94 0.0 0.0 0.00 0.00 0.00 94 1018.8
20260507123200 41 93 0.0 0.0 0.00 0.00 0.00 94 1018.8
20260507122655 41 92 0.0 0.0 0.00 0.00 0.00 94 1019.0
20260507122151 40 92 0.0 0.0 0.00 0.00 0.00 94 1018.9
20260507121647 39 94 0.0 0.0 0.00 0.00 0.00 94 1018.9
20260507121143 39 93 0.0 0.0 0.00 0.00 0.00 94 1018.8
20260507120640 38 92 0.0 0.0 0.00 0.00 0.00 94 1018.9
20260507120136 37 92 0.0 0.0 0.00 0.00 0.00 94 1018.8
20260507115632 37 92 0.0 0.0 0.00 0.00 0.00 94 1018.8
20260507115128 37 92 0.0 0.0 0.00 0.00 0.00 94 1019.0
20260507114624 36 92 0.0 0.0 0.00 0.00 0.00 94 1018.8
20260507114122 36 92 0.0 0.0 0.00 0.00 0.00 94 1018.7
20260507113619 36 92 0.0 0.0 0.00 0.00 0.00 94 1018.8
20260507113116 36 93 0.0 0.0 0.00 0.00 0.00 94 1018.8
20260507112614 36 92 0.0 0.0 0.00 0.00 0.00 94 1018.8
20260507112110 36 93 0.0 0.0 0.00 0.00 0.00 94 1018.6
20260507111607 36 92 0.0 0.0 0.00 0.00 0.00 94 1018.6
20260507111059 36 93 0.0 0.0 0.00 0.00 0.00 94 1018.7
20260507110555 36 92 0.0 0.0 0.00 0.00 0.00 94 1018.6
20260507110052 36 93 0.0 0.0 0.00 0.00 0.00 94 1018.5
20260507105549 37 92 0.0 0.0 0.00 0.00 0.00 94 1018.8
20260507105044 37 93 0.0 0.0 0.00 0.00 0.00 94 1018.7
20260507104542 37 93 0.0 0.0 0.00 0.00 0.00 94 1018.5
20260507104038 37 93 0.0 0.0 0.00 0.00 0.00 94 1018.6
20260507103534 36 93 0.0 0.0 0.00 0.00 0.00 94 1018.6
20260507103031 36 93 0.0 0.0 0.00 0.00 0.00 93 1018.6
20260507102528 36 92 0.0 0.0 0.00 0.00 0.00 93 1018.7
20260507102024 36 93 0.0 0.0 0.00 0.00 0.00 93 1018.7
20260507101520 36 93 0.0 0.0 0.00 0.00 0.00 93 1018.7
20260507101016 37 93 0.0 0.0 0.00 0.00 0.00 93 1018.7
20260507100514 37 93 0.0 0.0 0.00 0.00 0.00 93 1018.6
20260507100012 37 93 0.0 0.0 0.00 0.00 0.00 93 1018.9
20260507095509 37 93 0.0 0.0 0.00 0.00 0.00 93 1018.8
20260507095006 37 93 0.0 0.0 0.00 0.00 0.00 93 1018.9
20260507094502 38 93 0.0 0.0 0.00 0.00 0.00 93 1018.8
20260507093959 38 93 0.0 0.0 0.00 0.00 0.00 93 1019.0
20260507093456 39 93 0.0 0.0 0.00 0.00 0.00 93 1019.0
20260507092954 39 94 0.0 0.0 0.00 0.00 0.00 93 1019.2
20260507092451 38 95 0.0 0.0 0.00 0.00 0.00 93 1019.1
20260507091947 38 97 0.0 0.0 0.00 0.00 0.00 93 1019.0
20260507091444 38 91 0.0 0.0 0.00 0.00 0.00 93 1019.0
20260507090940 38 92 0.0 0.0 0.00 0.00 0.00 93 1019.1
20260507090436 38 92 0.0 0.0 0.00 0.00 0.00 93 1019.1
20260507085932 38 92 0.0 0.0 0.00 0.00 0.00 93 1019.0
20260507085430 38 95 0.0 0.0 0.00 0.00 0.00 93 1019.1
20260507084927 38 90 0.0 0.0 0.00 0.00 0.00 93 1019.0
20260507084424 38 90 0.0 0.0 0.00 0.00 0.00 93 1019.1
20260507083921 38 90 0.0 0.0 0.00 0.00 0.00 93 1018.9
20260507083417 38 88 0.0 0.0 0.00 0.00 0.00 92 1019.0
20260507082913 38 89 0.0 0.0 0.00 0.00 0.00 93 1019.1
20260507082409 38 88 0.0 0.0 0.00 0.00 0.00 93 1019.1
20260507081906 38 88 0.0 0.0 0.00 0.00 0.00 92 1019.1
20260507081402 38 88 0.0 0.0 0.00 0.00 0.00 92 1019.1
20260507080859 38 88 0.0 0.0 0.00 0.00 0.00 92 1019.3
20260507080355 38 88 0.0 0.0 0.00 0.00 0.00 92 1019.1
20260507075851 38 88 0.0 0.0 0.00 0.00 0.00 92 1019.2
20260507075347 38 88 0.0 0.0 0.00 0.00 0.00 92 1019.2
20260507074843 38 88 0.0 0.0 0.00 0.00 0.00 92 1019.4
20260507074341 38 88 0.0 0.0 0.00 0.00 0.00 92 1019.3
20260507073838 39 88 0.0 0.0 0.00 0.00 0.00 92 1019.4
20260507073335 39 88 0.0 0.0 0.00 0.00 0.00 92 1019.2
20260507072832 39 88 0.0 0.0 0.00 0.00 0.00 92 1019.5
20260507072329 39 88 0.0 0.0 0.00 0.00 0.00 92 1019.4
20260507071827 39 88 0.0 0.0 0.00 0.00 0.00 92 1019.5
20260507071324 39 88 0.0 0.0 0.00 0.00 0.00 92 1019.3
20260507070820 39 91 0.0 0.0 0.00 0.00 0.00 92 1019.6
20260507070318 39 90 0.0 0.0 0.00 0.00 0.00 92 1019.5
20260507065814 39 88 0.0 0.0 0.00 0.00 0.00 92 1019.6
20260507065310 40 88 0.0 0.0 0.00 0.00 0.00 92 1019.5
20260507064808 40 88 0.0 0.0 0.00 0.00 0.00 92 1019.6
20260507064307 41 88 0.0 0.0 0.00 0.00 0.00 92 1019.7
20260507063804 41 88 0.0 0.0 0.00 0.00 0.00 92 1019.8
20260507063301 42 90 0.0 0.0 0.00 0.00 0.00 92 1019.7
20260507062757 42 90 0.0 0.0 0.00 0.00 0.00 92 1019.9
20260507062254 42 87 0.0 0.0 0.00 0.00 0.00 92 1019.8
20260507061753 42 89 0.0 0.0 0.00 0.00 0.00 92 1019.8
20260507061250 42 89 0.0 0.0 0.00 0.00 0.00 92 1019.8
20260507060748 42 93 0.0 0.0 0.00 0.00 0.00 92 1019.8
20260507060244 43 92 0.0 0.0 0.00 0.00 0.00 91 1019.9
20260507055741 43 92 0.0 0.0 0.00 0.00 0.00 91 1019.9
20260507055236 43 92 0.0 0.0 0.00 0.00 0.00 91 1019.8
20260507054733 42 92 0.0 0.0 0.00 0.00 0.00 91 1019.9
20260507054230 42 95 0.0 0.0 0.00 0.00 0.00 91 1019.9
20260507053727 42 90 0.0 0.0 0.00 0.00 0.00 91 1019.9
20260507053225 42 91 0.0 0.0 0.00 0.00 0.00 91 1019.9
20260507052724 42 91 0.0 0.0 0.00 0.00 0.00 91 1019.9
20260507052219 41 91 0.0 0.0 0.00 0.00 0.00 91 1019.8
20260507051717 41 91 0.0 0.0 0.00 0.00 0.00 91 1019.8
20260507051214 41 91 0.0 0.0 0.00 0.00 0.00 91 1019.6
20260507050710 41 91 0.0 0.0 0.00 0.00 0.00 91 1020.0
20260507050208 41 92 0.0 0.0 0.00 0.00 0.00 91 1019.9
20260507045704 41 91 0.0 0.0 0.00 0.00 0.00 90 1019.9
20260507045200 41 91 0.0 0.0 0.00 0.00 0.00 90 1020.0
20260507044658 41 91 0.0 0.0 0.00 0.00 0.00 90 1020.0
20260507044154 41 91 0.0 0.0 0.00 0.00 0.00 90 1019.9
20260507043651 41 91 0.0 0.0 0.00 0.00 0.00 90 1020.0
20260507043148 41 91 0.0 0.0 0.00 0.00 0.00 90 1020.0
20260507042644 41 91 0.0 0.0 0.00 0.00 0.00 90 1020.3
20260507042139 41 91 0.0 0.0 0.00 0.00 0.00 89 1020.3
20260507041637 41 92 0.0 0.0 0.00 0.00 0.00 89 1020.2
20260507041132 42 92 0.0 0.0 0.00 0.00 0.00 89 1019.9
20260507040630 42 92 0.0 0.0 0.00 0.00 0.00 89 1020.0
20260507040121 42 93 0.0 0.0 0.00 0.11 0.11 89 1019.9
20260507035617 42 89 0.0 0.0 0.00 0.11 0.11 89 1020.2
20260507035113 43 89 0.0 0.0 0.00 0.11 0.11 89 1019.9
20260507034610 43 89 0.0 0.0 0.00 0.11 0.11 88 1020.2
20260507034108 43 89 0.0 0.0 0.00 0.11 0.11 88 1020.3
20260507033606 43 89 0.0 0.0 0.00 0.11 0.11 88 1020.4
20260507033103 43 89 0.0 0.0 0.00 0.11 0.11 88 1020.2
20260507032600 43 88 0.0 0.0 0.00 0.11 0.11 87 1020.4
20260507032056 43 88 0.0 0.0 0.00 0.11 0.11 88 1020.3
20260507031552 43 88 0.0 0.0 0.00 0.11 0.11 87 1019.9
20260507031049 43 86 0.0 0.0 0.00 0.11 0.11 85 1020.0
20260507030546 44 86 0.0 0.0 0.00 0.11 0.11 85 1020.0
20260507030044 44 86 0.0 0.0 0.00 0.11 0.11 84 1020.2
20260507025541 44 86 0.0 0.0 0.00 0.11 0.11 84 1020.0
20260507025038 44 86 0.0 0.0 0.00 0.11 0.11 83 1019.8
20260507024536 44 83 0.0 0.0 0.00 0.11 0.11 82 1019.9
20260507024027 44 83 0.0 0.0 0.00 0.11 0.11 82 1019.6
20260507023522 44 83 0.0 0.0 0.00 0.11 0.11 81 1019.8
20260507023021 44 83 0.0 0.0 0.00 0.11 0.11 80 1019.6
20260507022516 44 83 0.0 0.0 0.00 0.11 0.11 79 1019.6
20260507022006 44 83 0.0 0.0 0.00 0.11 0.11 77 1019.5
20260507021502 44 83 0.0 0.0 0.00 0.11 0.11 76 1019.7
20260507020959 44 83 0.0 0.0 0.00 0.11 0.11 74 1019.5
20260507020456 45 83 0.0 0.0 0.00 0.11 0.11 72 1019.3
20260507015953 45 83 0.0 0.0 0.00 0.11 0.11 70 1019.4
20260507015452 46 83 0.0 0.0 0.00 0.11 0.11 69 1019.3
20260507014949 46 83 0.0 0.0 0.00 0.11 0.11 67 1019.3
20260507014445 47 83 0.0 0.0 0.00 0.11 0.11 65 1019.3
20260507013941 48 83 0.0 0.0 0.00 0.11 0.11 64 1019.4
20260507013438 49 83 0.0 0.0 0.00 0.11 0.11 61 1019.2
20260507012935 50 83 0.0 0.0 0.00 0.11 0.11 60 1019.2
20260507012432 50 83 0.0 0.0 0.00 0.11 0.11 58 1019.1
20260507011928 51 83 0.0 0.0 0.00 0.11 0.11 56 1019.1
20260507011426 52 89 0.0 0.0 0.00 0.11 0.11 53 1019.3
20260507010925 53 90 0.0 0.0 0.00 0.11 0.11 52 1019.0
20260507010421 53 83 0.0 0.0 0.00 0.11 0.11 51 1019.1
20260507005918 54 83 0.0 0.0 0.00 0.11 0.11 49 1019.1
20260507005415 55 83 0.0 0.0 0.00 0.11 0.11 48 1018.9
20260507004911 56 84 0.0 0.0 0.00 0.11 0.11 47 1019.1
20260507004408 57 85 0.0 0.0 0.00 0.11 0.11 45 1019.0
20260507003906 58 64 0.9 0.9 0.00 0.11 0.11 43 1019.0
20260507003401 59 81 0.0 0.0 0.00 0.11 0.11 44 1018.8
20260507002856 59 86 0.0 0.0 0.00 0.11 0.11 42 1018.7
20260507002352 59 82 0.0 0.0 0.00 0.11 0.11 40 1018.9
20260507001850 59 70 0.0 0.9 0.00 0.11 0.11 39 1018.7
20260507001346 59 79 0.0 0.0 0.00 0.11 0.11 40 1018.8
20260507000843 60 61 0.9 0.9 0.00 0.11 0.11 41 1018.7
20260507000338 59 55 0.0 0.0 0.00 0.11 0.11 40 1018.9
20260506235835 59 76 1.7 1.7 0.00 0.11 0.11 38 1018.8
20260506235332 60 45 0.0 0.0 0.00 0.11 0.11 38 1018.9
20260506234828 60 76 0.9 2.6 0.00 0.11 0.11 38 1018.7
20260506234326 62 80 0.0 0.9 0.00 0.11 0.11 39 1018.9
20260506233824 61 23 1.7 2.6 0.00 0.11 0.11 36 1018.9
20260506233319 62 73 0.0 0.9 0.00 0.11 0.11 37 1018.8
20260506232816 63 84 0.0 0.0 0.00 0.11 0.11 38 1018.7
20260506232311 63 97 0.9 1.7 0.00 0.11 0.11 37 1018.9
20260506231809 64 53 1.7 2.6 0.00 0.11 0.11 36 1018.7
20260506231307 62 77 0.0 0.0 0.00 0.11 0.11 35 1018.9
20260506230804 63 20 2.6 2.6 0.00 0.11 0.11 36 1018.9
20260506230300 63 81 0.9 0.9 0.00 0.11 0.11 37 1018.8
20260506225756 63 41 1.7 2.6 0.00 0.11 0.11 37 1019.0
20260506225254 63 120 0.0 0.0 0.00 0.11 0.11 35 1018.8
20260506224750 62 45 1.7 2.6 0.00 0.11 0.11 34 1018.7
20260506224248 62 33 3.5 5.2 0.00 0.11 0.11 36 1018.9
20260506223744 62 75 2.6 3.5 0.00 0.11 0.11 37 1018.9
20260506223240 64 82 1.7 2.6 0.00 0.11 0.11 35 1018.7
20260506222737 63 96 0.0 0.0 0.00 0.11 0.11 39 1018.8
20260506222232 63 125 1.7 1.7 0.00 0.11 0.11 37 1018.9
20260506221730 63 82 0.0 0.0 0.00 0.11 0.11 39 1018.8
20260506221228 64 13 1.7 1.7 0.00 0.11 0.11 35 1018.7
20260506220725 63 88 0.0 0.0 0.00 0.11 0.11 38 1018.9
20260506220219 63 80 0.9 0.9 0.00 0.11 0.11 37 1018.8
20260506215717 64 77 0.0 0.0 0.00 0.11 0.11 36 1018.9
20260506215212 62 73 0.9 0.9 0.00 0.11 0.11 39 1018.9
20260506214709 62 60 1.7 2.6 0.00 0.11 0.11 35 1018.9
20260506214206 63 37 1.7 2.6 0.00 0.11 0.11 37 1018.9
20260506213705 64 70 3.5 3.5 0.00 0.11 0.11 36 1019.0
20260506213202 63 89 0.0 0.9 0.00 0.11 0.11 39 1019.2
20260506212659 63 30 1.7 2.6 0.00 0.11 0.11 37 1019.2
20260506212154 62 46 1.7 2.6 0.00 0.11 0.11 35 1019.2
20260506211650 63 87 2.6 3.5 0.00 0.11 0.11 39 1019.3
20260506211146 62 24 2.6 3.5 0.00 0.11 0.11 38 1019.2
20260506210643 64 42 1.7 2.6 0.00 0.11 0.11 35 1019.4
20260506210140 62 35 0.0 1.7 0.00 0.11 0.11 40 1019.5
20260506205637 62 73 4.3 6.1 0.00 0.11 0.11 37 1019.3
20260506205132 62 47 3.5 3.5 0.00 0.11 0.11 35 1019.6
20260506204630 62 68 0.9 1.7 0.00 0.11 0.11 38 1019.6
20260506204127 63 79 2.6 5.2 0.00 0.11 0.11 38 1019.6
20260506203625 63 70 0.0 0.0 0.00 0.11 0.11 38 1019.6
20260506203121 63 41 0.9 5.2 0.00 0.11 0.11 40 1019.7
20260506202619 62 41 3.5 3.5 0.00 0.11 0.11 38 1020.0
20260506202115 61 86 2.6 3.5 0.00 0.11 0.11 36 1019.7
20260506201612 62 58 6.1 7.8 0.00 0.11 0.11 36 1019.9
20260506201109 62 44 0.9 0.9 0.00 0.11 0.11 41 1020.0
20260506200605 62 50 1.7 2.6 0.00 0.11 0.11 42 1020.0
20260506195559 62 55 0.9 0.9 0.00 0.11 0.11 42 1019.8
20260506195055 62 95 0.9 1.7 0.00 0.11 0.11 42 1020.0
20260506194553 62 75 0.0 0.9 0.00 0.11 0.11 41 1020.2
20260506194049 62 75 1.7 1.7 0.00 0.11 0.11 42 1019.9
20260506193547 61 59 1.7 1.7 0.00 0.11 0.11 39 1020.3
20260506193044 61 92 0.0 0.9 0.00 0.11 0.11 39 1020.0
20260506192541 61 55 0.0 0.9 0.00 0.11 0.11 44 1020.3
20260506192036 62 332 3.5 5.2 0.00 0.11 0.11 41 1020.2